#timestamp,LO_Frequency,Hit,StdDev 
1672477215.3,286047001.0,N
1672477235.1,286047007.3,N
1672477255.9,286047003.0,N
1672477275.7,286047001.5,N
1672477295.5,286047001.2,N
1672477315.4,286046999.1,N
1672477335.2,286047002.8,N
1672477355.0,286047002.3,N
1672477356.0,286047002.3,N
1672477375.8,286046999.6,N
1672477395.6,286046992.0,N
1672477415.5,286046987.9,N
1672477435.3,286046987.3,N
1672477455.1,286046988.0,N
1672477475.9,286046988.7,N
1672477495.7,286046989.6,N
1672477515.6,286046984.3,N
1672477535.4,286046986.4,N
1672477555.2,286046987.4,N
1672477575.1,286046986.1,N
1672477576.0,286046986.1,N
1672477595.8,286046991.1,N
1672477615.7,286046993.9,N
1672477635.5,286047003.8,N
1672477655.3,286047002.6,N
1672477675.2,286046996.5,N
1672477695.0,286046994.4,N
1672477695.9,286046994.4,N
1672477715.7,286046988.2,N
1672477735.6,286046984.9,N
1672477755.4,286046992.6,N
1672477775.3,286046994.1,N
1672477795.1,286046993.0,N
1672477815.8,286046992.4,N
1672477835.7,286046990.4,N
1672477855.5,286046992.2,N
1672477875.4,286046988.6,N
1672477895.2,286046990.9,N
1672477915.0,286046988.6,N
1672477915.9,286046988.6,N
1672477935.8,286046989.1,N
1672477955.6,286046989.0,N
1672477975.4,286046987.5,N
1672477995.3,286046991.6,N
1672478015.1,286046990.7,N
1672478035.9,286046991.3,N
1672478055.7,286046988.9,N
1672478075.5,286046989.9,N
1672478095.4,286046987.4,Y
1672478115.2,286046986.3,P
1672478135.1,286046999.6,N
1672478136.0,286046999.6,N
1672478155.8,286046997.7,N
1672478175.6,286046997.2,N
1672478195.5,286046996.4,N
1672478215.3,286046995.7,N
1672478235.1,286047004.8,N
1672478255.9,286047004.5,N
1672478275.7,286047003.5,N
1672478295.6,286047003.6,N
1672478315.4,286046998.1,N
1672478335.2,286046999.2,N
1672478355.1,286047000.9,N
1672478356.0,286047000.9,N
1672478375.8,286046998.1,N
1672478395.6,286046997.5,N
1672478415.5,286046989.1,N
1672478435.3,286046990.2,N
1672478455.1,286046993.5,N
1672478475.9,286046996.0,N
1672478495.7,286046994.8,N
1672478515.6,286046996.4,N
1672478535.4,286046994.1,N
1672478555.2,286046991.1,N
1672478575.1,286046991.4,N
1672478576.0,286046991.4,N
1672478595.8,286046990.7,N
1672478615.6,286046991.7,N
1672478635.5,286046994.6,N
1672478655.3,286046995.6,N
1672478675.2,286046996.0,N
1672478695.9,286046992.7,N
1672478715.7,286046993.2,N
1672478735.6,286046993.2,N
1672478755.4,286046993.9,N
1672478775.2,286046990.4,N
1672478795.1,286046983.7,Y
1672478796.0,286046983.7,P
1672478815.8,286046987.1,N
1672478835.7,286046986.1,N
1672478855.5,286046982.6,Y
1672478875.3,286046990.8,P
1672478895.2,286046995.7,P
1672478915.0,286046998.8,N
1672478915.9,286046998.8,N
1672478935.7,286047004.1,N
1672478955.6,286047002.0,N
1672478975.4,286047001.5,N
1672478995.3,286047002.2,N
1672479015.1,286046998.4,N
1672479016.0,286046998.4,N
1672479035.8,286046997.2,N
1672479055.7,286046998.9,N
1672479075.5,286047002.8,N
1672479095.3,286047000.2,N
1672479115.2,286047000.1,N
1672479135.0,286046995.7,N
1672479135.9,286046995.7,N
1672479155.8,286046995.1,N
1672479175.6,286046995.8,N
1672479195.4,286046998.0,N
1672479215.3,286046999.2,N
1672479235.1,286046998.2,N
1672479255.8,286047000.8,N
1672479275.7,286046996.8,N
1672479295.5,286046999.2,N
1672479315.4,286047001.5,N
1672479335.2,286046998.4,N
1672479355.0,286046999.0,N
1672479355.9,286046999.0,N
1672479375.8,286047002.8,N
1672479395.6,286046993.8,N
1672479415.4,286046999.4,N
1672479435.3,286046998.8,N
1672479455.1,286046998.3,N
1672479475.8,286046999.3,N
1672479495.7,286047000.1,N
1672479515.5,286047002.7,N
1672479535.4,286047000.5,N
1672479555.2,286047005.3,N
1672479575.1,286047010.6,Y
1672479576.0,286047010.6,P
1672479595.8,286047009.3,N
1672479615.7,286047004.2,N
1672479635.5,286047004.3,N
1672479655.3,286047003.6,N
1672479675.2,286047002.5,N
1672479695.0,286046999.7,N
1672479695.9,286046999.7,N
1672479715.7,286046998.8,N
1672479735.6,286046998.7,N
1672479755.4,286046997.9,N
1672479775.3,286046989.0,N
1672479795.1,286046990.1,N
1672479815.8,286046997.7,N
1672479835.7,286046999.6,N
1672479855.5,286046997.2,N
1672479875.4,286046999.8,N
1672479895.2,286046997.5,N
1672479915.0,286046993.3,N
1672479915.9,286046993.3,N
1672479935.8,286046997.6,N
1672479955.6,286046997.4,N
1672479975.4,286047000.8,N
1672479995.3,286047000.3,N
1672480015.1,286047001.2,N
1672480035.9,286046996.6,N
1672480055.7,286046997.6,N
1672480075.5,286046992.9,N
1672480095.4,286046992.7,N
1672480115.2,286046995.1,N
1672480135.0,286046999.6,N
1672480135.9,286046999.6,N
1672480155.8,286046996.0,N
1672480175.6,286046996.2,N
1672480195.5,286046996.7,N
1672480215.3,286046992.3,N
1672480235.1,286046987.1,Y
1672480255.9,286046985.7,P
1672480275.7,286046984.4,N
1672480295.6,286046986.2,N
1672480315.4,286046989.9,N
1672480335.2,286046986.1,Y
1672480355.1,286046996.1,P
1672480356.0,286046996.1,N
1672480375.8,286046995.4,N
1672480395.7,286046995.1,N
1672480415.5,286046996.1,N
1672480435.3,286046990.4,Y
1672480455.2,286046992.4,P
1672480475.0,286046989.2,P
1672480475.9,286046989.2,P
1672480495.8,286046988.1,Y
1672480515.6,286046997.2,P
1672480535.4,286046999.3,N
1672480555.3,286047000.8,N
1672480575.1,286047003.5,N
1672480576.0,286047003.5,N
1672480595.9,286047003.8,N
1672480615.7,286047004.0,N
1672480635.5,286047005.8,N
1672480655.4,286047004.2,N
1672480675.2,286047004.8,N
1672480695.0,286047006.0,N
1672480695.9,286047006.0,N
1672480715.8,286047001.3,N
1672480735.6,286047001.2,N
1672480755.5,286046999.2,N
1672480775.3,286046998.7,N
1672480795.1,286047001.9,N
